Weather History for Luverne, MN

Change the Weather History Date:

Friday, November 8, 2013

  Actual Average (KFSD) Record (KFSD)
Temperature  
Mean Temperature 34 °F 37 °F  
Max Temperature 50 °F 47 °F 81 °F (1999)
Min Temperature 19 °F 27 °F -3 °F (1900)
Degree Days  
Heating Degree Days 30 28  
Month to date heating degree days 208  
Since 1 July heating degree days 948  
Cooling Degree Days 0 0  
Month to date cooling degree days 0  
Year to date cooling degree days 690  
Moisture  
Dew Point 31 °F    
Average Humidity 76    
Maximum Humidity 93    
Minimum Humidity 65    
Precipitation  
Precipitation 0.00 in 0.04 in 1.25 in (1970)
Month to date precipitation 0.36  
Year to date precipitation 24.69  
Snow  
Snow 0.00 in 0.20 in 8.00 in (1985)
Month to date snowfall 1.3  
Since 1 July snowfall 2.6  
Since 1 September snowfall 2.6  
Snow Depth -    
Sea Level Pressure  
Sea Level Pressure 29.84 in    
Wind  
Wind Speed 8 mph (SSW)    
Max Wind Speed 21 mph    
Max Gust Speed 31 mph    
Visibility 10 miles    
Events      
T = Trace of Precipitation, MM = Missing Value Source: NWS Daily Summary

Daily Weather History Graph

Daily Weather History Graph

Search for Another Location

Airport:

Trip Planner

Search our weather history database for the weather conditions in past years. The results will help you decide how hot, cold, wet, or windy it might be!

Date:

Astronomy

Nov. 08, 2013 Rise Set
Actual Time 7:10 AM CST 5:06 PM CST
Civil Twilight 6:39 AM CST 5:37 PM CST
Nautical Twilight 6:05 AM CST 6:11 PM CST
Astronomical Twilight 5:31 AM CST 6:44 PM CST
Moon 12:06 PM CST (11/8) 10:29 PM CST (11/8)
Length of Visible Light 10h 57m
Length of Day
9h 56m
Waxing Crescent, 33% of the Moon is Illuminated
Nov 8
Waxing Crescent
Nov 9
First Quarter
Nov 17
Full
Nov 25
Last Quarter
Dec 2
New

Hourly Weather History & Observations

Time (CST) Temp. Windchill Dew Point Humidity Pressure Visibility Wind Dir Wind Speed Gust Speed Precip Events Conditions
12:13 AM 21.2 °F - 17.6 °F 86% 30.19 in 5.0 mi Calm Calm - N/A   Clear
12:33 AM 21.2 °F - 19.4 °F 93% 30.19 in 7.0 mi Calm Calm - N/A   Clear
12:54 AM 19.4 °F - 17.6 °F 93% 30.18 in 10.0 mi Calm Calm - N/A   Clear
1:13 AM 21.2 °F - 19.4 °F 93% 30.17 in 10.0 mi Calm Calm - N/A   Clear
1:33 AM 21.2 °F - 19.4 °F 93% 30.16 in 10.0 mi Calm Calm - N/A   Clear
1:53 AM 21.2 °F - 19.4 °F 93% 30.16 in 10.0 mi Calm Calm - N/A   Clear
2:13 AM 21.2 °F - 19.4 °F 93% 30.16 in 10.0 mi Calm Calm - N/A   Clear
2:33 AM 21.2 °F - 17.6 °F 86% 30.15 in 10.0 mi Calm Calm - N/A   Clear
2:53 AM 21.2 °F - 19.4 °F 93% 30.14 in 10.0 mi Calm Calm - N/A   Clear
3:13 AM 23.0 °F - 21.2 °F 93% 30.13 in 10.0 mi Calm Calm - N/A   Clear
3:33 AM 23.0 °F - 21.2 °F 93% 30.11 in 10.0 mi Calm Calm - N/A   Clear
3:53 AM 23.0 °F - 21.2 °F 93% 30.09 in 10.0 mi Calm Calm - N/A   Clear
4:13 AM 24.8 °F - 23.0 °F 93% 30.09 in 10.0 mi Calm Calm - N/A   Clear
4:33 AM 26.6 °F - 23.0 °F 86% 30.09 in 10.0 mi Calm Calm - N/A   Scattered Clouds
4:53 AM 26.6 °F 22.6 °F 23.0 °F 86% 30.07 in 10.0 mi SSE 3.5 mph - N/A   Scattered Clouds
5:13 AM 28.4 °F 22.2 °F 24.8 °F 86% 30.06 in 10.0 mi South 5.8 mph - N/A   Mostly Cloudy
5:33 AM 30.2 °F 24.3 °F 26.6 °F 86% 30.04 in 10.0 mi SSE 5.8 mph - N/A   Mostly Cloudy
5:53 AM 32.0 °F 24.2 °F 28.4 °F 87% 30.02 in 10.0 mi SSE 9.2 mph - N/A   Scattered Clouds
6:13 AM 32.0 °F 24.2 °F 28.4 °F 87% 30.01 in 10.0 mi SSE 9.2 mph - N/A   Scattered Clouds
6:33 AM 33.8 °F 25.3 °F 28.4 °F 81% 29.99 in 10.0 mi SSE 11.5 mph - N/A   Clear
6:53 AM 33.8 °F 24.8 °F 28.4 °F 81% 29.97 in 10.0 mi SSE 12.7 mph - N/A   Clear
7:13 AM 35.6 °F 28.0 °F 28.4 °F 75% 29.96 in 10.0 mi SSE 10.4 mph - N/A   Clear
7:33 AM 35.6 °F 28.0 °F 28.4 °F 75% 29.95 in 10.0 mi SSE 10.4 mph - N/A   Clear
7:53 AM 35.6 °F 27.1 °F 28.4 °F 75% 29.92 in 10.0 mi SSE 12.7 mph 19.6 mph N/A   Clear
8:13 AM 37.4 °F 28.5 °F 28.4 °F 70% 29.91 in 10.0 mi SSE 15.0 mph 20.7 mph N/A   Clear
8:33 AM 37.4 °F 27.8 °F 28.4 °F 70% 29.90 in 10.0 mi SSE 17.3 mph - N/A   Clear
8:53 AM 37.4 °F 27.8 °F 28.4 °F 70% 29.88 in 10.0 mi SSE 17.3 mph 24.2 mph N/A   Clear
9:13 AM 37.4 °F 28.5 °F 30.2 °F 75% 29.85 in 10.0 mi SSE 15.0 mph - N/A   Clear
9:33 AM 39.2 °F 29.8 °F 30.2 °F 70% 29.83 in 10.0 mi SSE 18.4 mph 25.3 mph N/A   Clear
9:53 AM 41.0 °F 31.9 °F 30.2 °F 65% 29.81 in 10.0 mi SSE 19.6 mph 26.5 mph N/A   Clear
10:13 AM 41.0 °F 31.6 °F 30.2 °F 65% 29.79 in 10.0 mi SSE 20.7 mph 31.1 mph N/A   Clear
10:33 AM 41.0 °F 32.2 °F 30.2 °F 65% 29.78 in 10.0 mi SSE 18.4 mph 27.6 mph N/A   Clear
10:53 AM 41.0 °F 32.2 °F 30.2 °F 65% 29.77 in 10.0 mi SSE 18.4 mph 27.6 mph N/A   Clear
11:13 AM 41.0 °F 31.9 °F 32.0 °F 70% 29.76 in 10.0 mi South 19.6 mph 26.5 mph N/A   Clear
11:33 AM 41.0 °F 33.1 °F 32.0 °F 70% 29.74 in 10.0 mi SSE 15.0 mph 21.9 mph N/A   Clear
11:53 AM 42.8 °F 37.0 °F 32.0 °F 66% 29.72 in 10.0 mi SSE 10.4 mph 18.4 mph N/A   Clear
12:13 PM 42.8 °F 36.6 °F 32.0 °F 66% 29.72 in 10.0 mi South 11.5 mph - N/A   Clear
12:33 PM 42.8 °F 36.6 °F 33.8 °F 70% 29.69 in 10.0 mi South 11.5 mph 17.3 mph N/A   Clear
12:53 PM 42.8 °F 34.3 °F 33.8 °F 70% 29.66 in 10.0 mi South 19.6 mph 25.3 mph N/A   Clear
1:13 PM 44.6 °F 36.6 °F 33.8 °F 66% 29.65 in 10.0 mi South 19.6 mph 25.3 mph N/A   Clear
1:33 PM 44.6 °F 36.9 °F 33.8 °F 66% 29.65 in 10.0 mi South 18.4 mph 24.2 mph N/A   Clear
1:53 PM 44.6 °F 37.2 °F 35.6 °F 71% 29.63 in 10.0 mi South 17.3 mph - N/A   Clear
2:13 PM 46.4 °F 39.5 °F 35.6 °F 66% 29.62 in 10.0 mi South 17.3 mph 23.0 mph N/A   Clear
2:33 PM 46.4 °F 39.0 °F 37.4 °F 71% 29.62 in 10.0 mi South 19.6 mph 26.5 mph N/A   Clear
2:53 PM 46.4 °F 39.8 °F 37.4 °F 71% 29.62 in 10.0 mi South 16.1 mph 24.2 mph N/A   Clear
3:13 PM 50.0 °F - 39.2 °F 66% 29.62 in 10.0 mi SSW 13.8 mph - N/A   Clear
3:33 PM 50.0 °F - 39.2 °F 66% 29.63 in 10.0 mi SSW 16.1 mph 21.9 mph N/A   Clear
3:53 PM 50.0 °F - 39.2 °F 66% 29.63 in 10.0 mi SSW 16.1 mph 20.7 mph N/A   Clear
4:13 PM 50.0 °F - 39.2 °F 66% 29.63 in 10.0 mi SW 10.4 mph - N/A   Clear
4:33 PM 50.0 °F - 39.2 °F 66% 29.64 in 10.0 mi SW 13.8 mph - N/A   Clear
4:53 PM 48.2 °F - 41.0 °F 76% 29.63 in 10.0 mi SW 10.4 mph 17.3 mph N/A   Scattered Clouds
5:13 PM 48.2 °F - 41.0 °F 76% 29.65 in 10.0 mi WSW 12.7 mph - N/A   Mostly Cloudy
5:33 PM 50.0 °F - 41.0 °F 71% 29.67 in 10.0 mi West 20.7 mph 25.3 mph N/A   Scattered Clouds
5:53 PM 50.0 °F - 41.0 °F 71% 29.68 in 10.0 mi West 18.4 mph 25.3 mph N/A   Clear
6:13 PM 48.2 °F - 41.0 °F 76% 29.69 in 10.0 mi West 13.8 mph - N/A   Scattered Clouds
6:33 PM 46.4 °F 41.1 °F 39.2 °F 76% 29.70 in 10.0 mi West 11.5 mph - N/A   Scattered Clouds
6:53 PM 44.6 °F 40.2 °F 37.4 °F 76% 29.70 in 10.0 mi WSW 8.1 mph - N/A   Clear
7:13 PM 42.8 °F 38.0 °F 37.4 °F 81% 29.71 in 10.0 mi WSW 8.1 mph - N/A   Clear
7:33 PM 42.8 °F 37.0 °F 37.4 °F 81% 29.71 in 10.0 mi WSW 10.4 mph - N/A   Mostly Cloudy
7:53 PM 46.4 °F 39.5 °F 39.2 °F 76% 29.71 in 10.0 mi West 17.3 mph - N/A   Overcast
8:13 PM 46.4 °F 39.2 °F 39.2 °F 76% 29.71 in 10.0 mi West 18.4 mph - N/A   Overcast
8:33 PM 46.4 °F 39.5 °F 37.4 °F 71% 29.72 in 10.0 mi West 17.3 mph - N/A   Overcast
8:53 PM 46.4 °F 39.5 °F 37.4 °F 71% 29.72 in 10.0 mi West 17.3 mph 21.9 mph N/A   Overcast
9:13 PM 46.4 °F 41.1 °F 37.4 °F 71% 29.73 in 10.0 mi West 11.5 mph - N/A   Overcast
9:33 PM 46.4 °F 40.4 °F 37.4 °F 71% 29.73 in 10.0 mi West 13.8 mph 17.3 mph N/A   Overcast
9:53 PM 46.4 °F 40.1 °F 37.4 °F 71% 29.73 in 10.0 mi West 15.0 mph - N/A   Overcast
10:13 PM 44.6 °F 37.2 °F 37.4 °F 76% 29.75 in 10.0 mi West 17.3 mph 21.9 mph N/A   Overcast
10:33 PM 46.4 °F 39.8 °F 37.4 °F 71% 29.75 in 10.0 mi West 16.1 mph - N/A   Overcast
10:53 PM 44.6 °F 37.4 °F 37.4 °F 76% 29.75 in 10.0 mi West 16.1 mph - N/A   Mostly Cloudy
11:13 PM 44.6 °F 37.4 °F 37.4 °F 76% 29.75 in 10.0 mi West 16.1 mph 21.9 mph N/A   Clear
11:33 PM 44.6 °F 38.4 °F 35.6 °F 71% 29.76 in 10.0 mi West 12.7 mph - N/A   Clear
11:53 PM 42.8 °F 36.6 °F 35.6 °F 76% 29.78 in 10.0 mi West 11.5 mph - N/A   Clear